Location: *
(13.9670°N, 101.5170°E)
Time: 21:24:45
(UTC+00:00)

Daily predictions for brighter satellites

Satellite Brightness Start Highest point End
(mag) Time Altitude Azimuth Time Altitude Azimuth Time Altitude Azimuth
GPS 2-18 Rocket1 4.3 12:04:26 10° WNW 12:07:56 29° N 12:08:28 28° NNE
deb Ariane 4.2 12:05:11 10° WSW 12:08:11 41° SSE 12:11:29 25° ESE
GPS 2-05 Rocket1 3.1 12:08:57 10° WSW 12:11:10 50° W 12:11:10 50° W
YAOGAN 6 4.1 12:11:06 10° S 12:14:33 39° W 12:17:58 10° NNW
Cosmos 841 Rocket 3.3 12:11:48 10° S 12:16:58 73° ESE 12:19:42 29° NNE
Cosmos 1570 Rocket 4.5 12:11:49 10° SSW 12:17:03 62° WNW 12:22:18 10° N
ATLAS 3B R/B 4.3 12:11:18 10° WSW 12:17:14 31° WNW 12:23:04 10° N
Cosmos 1459 Rocket 4.1 12:13:11 10° NNE 12:19:14 48° E 12:25:20 10° SSE
USA 215 4.4 12:16:40 10° SSE 12:22:43 41° SW 12:28:48 10° WNW
Cosmos 1833 Rocket 2.5 12:17:09 10° NNW 12:22:45 76° ENE 12:28:21 10° SSE
Cosmos 2344 3.5 12:14:30 10° SSW 12:23:09 68° ESE 12:27:18 29° NE
ATLAS 5 CENTAUR R/B 3.0 12:19:31 10° WSW 12:24:57 78° SSE 12:33:15 33° ENE
Cosmos 2369 Rocket 2.0 12:22:00 10° SSW 12:27:41 81° ESE 12:29:45 41° NNE
Cosmos 540 Rocket 3.3 12:29:23 10° SSW 12:34:31 88° ESE 12:34:59 74° NNE
GPS 2-12 Rocket1 3.4 12:34:22 10° WNW 12:38:21 64° W 12:38:21 64° W
Cosmos 2123 Rocket 4.0 12:36:21 10° S 12:42:40 83° W 12:48:57 10° N
Cosmos 1943 Rocket 2.9 12:43:02 10° SSW 12:48:21 49° WNW 12:50:59 28° NNW
Cosmos 2173 Rocket 3.8 12:42:12 10° N 12:48:21 86° W 12:54:26 10° S
SWIFT 4.3 12:51:04 10° WNW 12:53:10 25° WNW 12:53:10 25° WNW
Cosmos 2082 Rocket 2.8 12:49:42 10° NNW 12:53:39 47° NNW 12:53:39 47° NNW
USA 234 3.3 13:07:24 69° NW 13:07:29 69° NW 13:13:58 10° SW
CZ-3B R/B 4.3 13:30:43 10° WNW 13:52:49 83° SSW 13:54:53 76° SSE
H-2A ROCKET BODY 4.3 19:55:05 54° NE 19:55:05 54° NE 20:19:21 10° ENE
Atlas 2A Centaur Rocket 3.9 20:37:26 56° SSE 20:38:11 58° SE 21:03:51 10° ENE
Cosmos 2278 Rocket 4.2 20:40:12 15° NNE 20:43:22 24° ENE 20:47:49 10° ESE
Mugunghwa Rocket 4.4 20:46:32 59° SE 20:46:32 59° SE 20:53:03 10° ENE
Milstar 3 3.5 20:49:15 44° N 20:49:15 44° N 20:54:25 10° NE
Skynet4D Del rocket 4.4 20:53:34 85° W 20:53:50 87° SSW 21:02:15 10° ESE
NOSS 3-2 (A) 4.5 20:59:00 24° N 21:04:28 66° ENE 21:13:00 10° SE
CZ-2C R/B 3.3 21:02:31 10° NNE 21:07:26 49° E 21:12:12 10° S
Cosmos 2327 Rocket 4.3 21:06:25 10° S 21:12:42 81° W 21:18:54 10° N
GPS 2-04 Rocket1 4.2 21:16:56 33° NE 21:16:56 33° NE 21:19:22 10° NE
Cosmos 2154 Rocket 3.8 21:12:32 10° S 21:18:44 90° W 21:24:57 10° N
Cosmos 1741 Rocket 4.3 21:13:52 10° S 21:19:07 67° ESE 21:24:23 10° NNE
Aurora 2 Rocket 3.5 21:20:41 52° WSW 21:22:39 88° SSE 21:28:21 10° ENE
Cosmos 1610 Rocket 4.3 21:16:50 10° S 21:23:01 73° W 21:29:19 10° N
H-II Stage 2 3.6 21:24:04 47° W 21:26:06 66° SSW 22:03:52 10° SE
H-II Stage 2 3.6 21:24:04 47° W 21:26:06 66° SSW 22:03:51 10° SE
H-II Stage 2 3.6 21:24:04 47° W 21:26:07 66° SSW 22:03:52 10° SE
CZ-3B R/B 1.9 21:29:14 75° SW 21:29:37 87° SSE 21:39:28 10° ENE
PSLV R/B 4.0 21:28:37 10° SSE 21:32:38 72° ENE 21:34:20 33° N
GPS 2-15 Rocket1 3.0 21:34:27 63° NNW 21:34:42 64° NNW 21:39:20 10° ENE
Centaur D-1AR AC-39 2.5 21:34:55 33° N 21:35:01 33° N 21:39:27 10° ENE
Okean 1-7 Rocket 3.4 21:31:47 10° S 21:36:11 73° W 21:40:36 10° N
GPS 2-17 Rocket1 3.5 21:38:45 41° NNW 21:39:18 44° N 21:43:27 10° E
Cosmos 1437 Rocket 2.9 21:35:32 10° S 21:40:06 54° N 21:43:06 10° N
Cosmos 2228 4.2 21:37:21 10° NNE 21:41:22 43° E 21:45:23 10° SSE
Hubble Space Telescope 3.4 21:42:02 10° S 21:44:36 16° SSE 21:47:10 10° ESE
ISS -3.9 21:45:05 80° S 21:45:14 85° ESE 21:48:34 10° NE
Cosmos 921 Rocket 4.3 21:49:15 23° SW 21:49:15 23° SW 21:51:13 10° SSW
Cosmos 2341 Rocket 3.9 21:43:34 10° S 21:49:51 87° W 21:56:06 10° N
GPS 2-14 Rocket1 2.4 21:49:57 57° W 21:50:40 81° SSW 21:54:27 10° ESE
GPS 2-05 Rocket1 4.4 21:52:32 18° S 21:52:32 18° S 21:53:41 10° SSE
Nadezhda 3 Rocket 4.2 21:46:40 10° N 21:52:59 77° E 21:59:14 10° S
Cosmos 1726 4.3 21:50:06 10° NNE 21:53:18 28° E 21:56:30 10° SE
Cosmos 44 3.0 21:50:23 18° NNW 21:53:35 81° ENE 21:57:59 10° SSE
ATLAS 3B R/B 3.4 21:47:55 10° NNW 21:54:36 55° ENE 22:01:30 10° SE
Cosmos 1295 Rocket 4.5 21:49:04 10° SSW 21:55:09 57° W 22:01:10 10° N
Cosmos 1726 Rocket 3.9 21:51:22 10° N 21:55:39 66° E 21:59:56 10° SSE
CZ-4B R/B 4.2 21:53:04 10° N 21:57:09 47° WNW 22:01:22 10° SSW
Cosmos 292 Rocket 4.3 21:56:55 31° WNW 21:58:10 36° W 22:02:35 10° SSW
Cosmos 1603 3.6 21:56:23 10° SSW 22:01:57 75° WNW 22:07:33 10° NNE
CENTAUR R/B 3.4 21:54:23 10° NNW 22:03:02 78° ENE 22:11:36 10° SSE
SL-8 Rocket 4.0 21:59:30 10° S 22:05:43 88° E 22:11:55 10° N
Centaur AC-119 4.3 22:04:09 20° WSW 22:06:58 35° SSW 22:19:56 10° SE
Cosmos 1674 2.8 22:04:22 10° SSW 22:07:57 47° W 22:11:31 10° N
PSLV R/B 3.6 22:06:47 10° N 22:10:24 58° WNW 22:14:05 10° SSW
Meteor 1-24 Rocket 3.7 22:05:03 10° S 22:10:39 89° W 22:16:28 10° N
Cosmos 2366 rocket 4.2 22:09:58 10° S 22:16:19 82° E 22:22:39 10° N
IUS-9 SRM-1 4.3 22:16:08 10° N 22:18:05 15° NNE 22:21:41 10° ENE
Cosmos 1626 3.3 22:19:38 10° SSE 22:23:11 46° E 22:26:44 10° NNE
Ariane H10+ 4.1 22:21:40 10° SW 22:23:38 18° S 22:26:46 10° SE
Cosmos 1953 3.4 22:21:33 10° NW 22:24:43 23° W 22:27:53 10° SW
Cosmos 2058 Rocket 3.0 22:20:24 10° N 22:24:51 83° W 22:29:21 10° S
Meteor 1-16 Rocket 4.1 22:20:13 10° NNW 22:25:32 63° W 22:31:02 10° S
Meteor 1-31 Rocket 4.3 22:24:12 10° NW 22:26:24 15° WNW 22:28:38 10° WSW
Cosmos 2278 Rocket 3.1 22:22:38 10° NW 22:27:12 26° WSW 22:31:47 10° SSW
Okean O Rocket 1.7 22:24:12 10° NNE 22:28:33 81° ESE 22:32:52 10° S
Meteor 2-10 4.1 22:25:08 10° N 22:30:32 74° W 22:36:07 10° S
Cosmos 2297 3.9 22:27:00 10° NNW 22:32:42 77° ENE 22:38:23 10° SSE
Delta 142 3.6 22:28:08 11° WNW 22:32:48 77° NNE 22:36:55 10° ESE
Cosmos 1943 3.3 22:27:39 10° SSW 22:33:10 52° WNW 22:38:41 10° N
COBE Rocket 4.2 22:32:49 10° SSE 22:37:44 76° ENE 22:42:48 10° N
BREEZE-M DEB (TANK) 2.4 22:37:26 10° NNW 22:39:35 37° NE 22:41:48 10° ESE
Cosmos 1484 Rocket 3.8 22:38:30 10° NNW 22:41:46 26° WNW 22:45:04 10° SW
CZ-2C R/B 4.3 22:44:45 10° WNW 22:45:08 10° WNW 22:45:32 10° WNW
Chandra Rocket (1) 3.8 22:37:31 10° WSW 22:52:47 50° NNW 22:57:17 10° NE
